This is the latest recevied weather packets stored in our database for station/object VE3VGJ. If no packets are shown the sender has not sent any weather packets the latest 10 day(s).
| Time | Temp. | Humidity | Pressure | Rain* | Wind** | Luminosity | Snow |
|---|---|---|---|---|---|---|---|
| 1777916171 | 16.11° C | 52% | 1003.8 hPa | 0 mm | - | 884 W/m² | - |
| 1777915869 | 16.11° C | 53% | 1003.7 hPa | 0 mm | - | 885 W/m² | - |
| 1777915565 | 15.56° C | 52% | 1003.8 hPa | 0 mm | - | 883 W/m² | - |
| 1777915262 | 15.56° C | 52% | 1003.9 hPa | 0 mm | - | 889 W/m² | - |
| 1777914958 | 15.56° C | 52% | 1003.8 hPa | 0 mm | - | 880 W/m² | - |
| 1777914656 | 15.56° C | 53% | 1003.9 hPa | 0 mm | - | 893 W/m² | - |
| 1777914351 | 16.11° C | 52% | 1003.8 hPa | 0 mm | - | 888 W/m² | - |
| 1777914049 | 15.56° C | 52% | 1003.9 hPa | 0 mm | - | 888 W/m² | - |
| 1777913745 | 15.56° C | 52% | 1004.1 hPa | 0 mm | - | 885 W/m² | - |
| 1777913442 | 15.56° C | 52% | 1004.1 hPa | 0 mm | - | 883 W/m² | - |
| 1777913138 | 15.56° C | 54% | 1004.2 hPa | 0 mm | - | 851 W/m² | - |
| 1777912835 | 15.56° C | 54% | 1004.3 hPa | 0 mm | - | 715 W/m² | - |
| 1777912531 | 15° C | 54% | 1004.4 hPa | 0 mm | - | 914 W/m² | - |
| 1777912228 | 15° C | 54% | 1004.3 hPa | 0 mm | - | 883 W/m² | - |
| 1777911924 | 15° C | 55% | 1004.6 hPa | 0 mm | - | 872 W/m² | - |
| 1777911620 | 15° C | 55% | 1004.4 hPa | 0 mm | - | 867 W/m² | - |
| 1777911316 | 15.56° C | 55% | 1004.5 hPa | 0 mm | - | 862 W/m² | - |
| 1777911015 | 15° C | 57% | 1004.4 hPa | 0 mm | - | 844 W/m² | - |
| 1777910712 | 15° C | 56% | 1004.3 hPa | 0 mm | - | 845 W/m² | - |
| 1777910408 | 15° C | 56% | 1004.7 hPa | 0 mm | - | 848 W/m² | - |
| 1777910104 | 14.44° C | 57% | 1004.6 hPa | 0 mm | - | 842 W/m² | - |
| 1777909802 | 15° C | 55% | 1004.6 hPa | 0 mm | - | 798 W/m² | - |
| 1777909498 | 14.44° C | 59% | 1004.7 hPa | 0 mm | - | 820 W/m² | - |
| 1777909196 | 13.89° C | 58% | 1005 hPa | 0 mm | - | 815 W/m² | - |
| 1777908894 | 13.89° C | 58% | 1004.5 hPa | 0 mm | - | 817 W/m² | - |
* Rain latest hour (hover to see other rain measurements)
** Current wind speed in m/s (hover to see current wind gust speed)